This is the latest recevied weather packets stored in our database for station/object WP3OF-2. If no packets are shown the sender has not sent any weather packets the latest 10 day(s).
| Time | Temp. | Humidity | Pressure | Rain* | Wind** | Luminosity | Snow |
|---|---|---|---|---|---|---|---|
| 1777578880 | 20.56° C | 99% | 1021.5 hPa | 1.78 mm | - | 15 W/m² | - |
| 1777578576 | 20.56° C | 99% | 1021.5 hPa | 1.27 mm | - | 23 W/m² | - |
| 1777578271 | 20.56° C | 99% | 1021.5 hPa | 1.27 mm | - | 32 W/m² | - |
| 1777577961 | 20.56° C | 99% | 1021.5 hPa | 0 mm | - | 43 W/m² | - |
| 1777577657 | 20.56° C | 99% | 1021.8 hPa | 1.78 mm | - | 37 W/m² | - |
| 1777577355 | 20° C | 99% | 1021.8 hPa | 1.78 mm | - | 74 W/m² | - |
| 1777577050 | 20.56° C | 99% | 1021.8 hPa | 1.27 mm | - | 70 W/m² | - |
| 1777576747 | 20.56° C | 99% | 1021.8 hPa | 1.27 mm | - | 60 W/m² | - |
| 1777576446 | 20.56° C | 99% | 1021.8 hPa | 0 mm | - | 67 W/m² | - |
| 1777576143 | 20.56° C | 99% | 1021.8 hPa | 0 mm | - | 81 W/m² | - |
| 1777575838 | 20.56° C | 99% | 1021.8 hPa | 4.83 mm | - | 78 W/m² | - |
| 1777575535 | 20.56° C | 99% | 1021.8 hPa | 6.6 mm | - | 74 W/m² | - |
| 1777575230 | 20.56° C | 99% | 1021.8 hPa | 1.27 mm | - | 22 W/m² | - |
| 1777574927 | 21.11° C | 99% | 1022.3 hPa | 1.27 mm | - | 30 W/m² | - |
| 1777574623 | 21.11° C | 99% | 1021.8 hPa | 1.78 mm | - | 39 W/m² | - |
| 1777574321 | 21.11° C | 99% | 1022.3 hPa | 1.78 mm | - | 47 W/m² | - |
| 1777574015 | 21.11° C | 99% | 1021.8 hPa | 0 mm | - | 95 W/m² | - |
| 1777573710 | 21.11° C | 99% | 1022.3 hPa | 0 mm | - | 92 W/m² | - |
| 1777573407 | 20.56° C | 99% | 1022.3 hPa | 0 mm | - | 143 W/m² | - |
| 1777573103 | 21.11° C | 99% | 1022.6 hPa | 3.05 mm | - | 120 W/m² | - |
| 1777572800 | 21.11° C | 99% | 1022.6 hPa | 8.89 mm | - | 110 W/m² | - |
| 1777572495 | 21.11° C | 99% | 1022.6 hPa | 7.11 mm | - | 104 W/m² | - |
| 1777572190 | 21.11° C | 99% | 1022.6 hPa | 0 mm | - | 54 W/m² | - |
| 1777571886 | 21.11° C | 99% | 1022.6 hPa | 0 mm | - | 34 W/m² | - |
| 1777571581 | 21.11° C | 99% | 1022.6 hPa | 0 mm | - | 41 W/m² | - |
* Rain latest hour (hover to see other rain measurements)
** Current wind speed in m/s (hover to see current wind gust speed)